User: anonymous   Login
Location: Marcé
(47.5801°N, 0.3280°W)
Time: 05:19:28
(UTC+02:00)
Language:

VRSS-1 - Orbit

View from above orbital plane
View from above orbital plane
View from above satellite
View from above satellite

Ground track
Ground track

The orbit data is extracted from the following two-line orbital elements,

1 38782U 12052A   23150.15576206  .00000332  00000-0  54514-4 0  9992
2 38782  97.6090 175.0028 0017311 277.2278  82.6964 14.76427593575035
Epoch (UTC): 30 May 2023 03:44:17
Eccentricity: 0.0017311
inclination: 97.6090°
perigee height: 628 km
apogee height: 653 km
right ascension of ascending node: 175.0028°
argument of perigee: 277.2278°
revolutions per day: 14.76427593
mean anomaly at epoch: 82.6964°
orbit number at epoch: 57503

The dashed part of the orbit path shows where the satellite is in the earth's shadow,  

DLR